Weather History for Lowell, ID

Change the Weather History Date:

Tuesday, April 9, 2013

  Actual Average Record
Temperature  
Mean Temperature 44 °F -  
Max Temperature 57 °F 56 °F 71 °F (2004)
Min Temperature 32 °F 34 °F 32 °F (1999)
Degree Days  
Heating Degree Days 20    
Moisture  
Dew Point 32 °F    
Average Humidity 72    
Maximum Humidity 96    
Minimum Humidity 30    
Precipitation  
Precipitation 0.00 in - - ()
Sea Level Pressure  
Sea Level Pressure 30.33 in    
Wind  
Wind Speed 1 mph (West)    
Max Wind Speed 8 mph    
Max Gust Speed 16 mph    
Averages and records for this station are not official NWS values.
T = Trace of Precipitation, MM = Missing Value Source: NWS Daily Summary

Daily Weather History Graph

Daily Weather History Graph

Search for Another Location

Airport:

Trip Planner

Search our weather history database for the weather conditions in past years. The results will help you decide how hot, cold, wet, or windy it might be!

Date:

Astronomy

Apr. 09, 2013 Rise Set
Actual Time 7:06 AM MDT 8:22 PM MDT
Civil Twilight 6:35 AM MDT 8:53 PM MDT
Nautical Twilight 5:58 AM MDT 9:30 PM MDT
Astronomical Twilight 5:18 AM MDT 10:10 PM MDT
Moon 6:32 AM MDT (4/9) 8:02 PM MDT (4/9)
Length of Visible Light 14h 17m
Length of Day
13h 15m
Waning Crescent, 0% of the Moon is Illuminated
Apr 9
Waning Crescent
Apr 10
New
Apr 18
First Quarter
Apr 25
Full
May 2
Last Quarter

Hourly Weather History & Observations

Time (MDT) Temp. Windchill Dew Point Humidity Pressure Visibility Wind Dir Wind Speed Gust Speed Precip Events Conditions
12:52 AM 35.1 °F - 34.0 °F 96% 30.25 in - Calm Calm - N/A   Unknown
1:52 AM 35.1 °F 32.2 °F 33.1 °F 92% 30.29 in - North 3.5 mph - N/A   Unknown
2:52 AM 35.1 °F - 33.1 °F 92% 30.31 in - Calm Calm - N/A   Unknown
3:52 AM 35.1 °F - 33.1 °F 92% 30.31 in - Calm Calm - N/A   Unknown
4:52 AM 35.1 °F - 32.0 °F 89% 30.33 in - Calm Calm - N/A   Unknown
5:52 AM 34.0 °F - 30.9 °F 89% 30.35 in - Calm Calm - N/A   Unknown
6:52 AM 33.1 °F 30.0 °F 30.9 °F 92% 30.39 in - North 3.5 mph - N/A   Unknown
7:52 AM 32.0 °F - 30.9 °F 96% 30.40 in - Calm Calm - N/A   Unknown
8:52 AM 32.0 °F 28.7 °F 30.0 °F 92% 30.43 in - North 3.5 mph - N/A   Unknown
9:52 AM 36.0 °F - 32.0 °F 86% 30.43 in - Calm Calm - N/A   Unknown
10:52 AM 43.0 °F - 27.0 °F 53% 30.41 in - Calm Calm - N/A   Unknown
11:52 AM 46.9 °F - 25.0 °F 42% 30.38 in - Calm Calm - N/A   Unknown
12:52 PM 50.0 °F - 27.0 °F 41% 30.35 in - Calm Calm - N/A   Unknown
1:52 PM 52.0 °F - 25.0 °F 35% 30.32 in - South 3.5 mph - N/A   Unknown
2:52 PM 55.0 °F - 24.1 °F 30% 30.29 in - Variable 3.5 mph - N/A   Unknown
3:52 PM 55.9 °F - 30.0 °F 37% 30.26 in - South 8.1 mph - N/A   Unknown
4:52 PM 57.9 °F - 30.9 °F 36% 30.25 in - South 6.9 mph 16.1 mph N/A   Unknown
5:52 PM 52.0 °F - 33.1 °F 49% 30.26 in - South 4.6 mph - N/A   Unknown
6:52 PM 48.0 °F - 37.0 °F 66% 30.27 in - Calm Calm - N/A   Unknown
7:52 PM 45.0 °F - 39.0 °F 80% 30.29 in - Calm Calm - N/A   Unknown
8:52 PM 42.1 °F - 37.9 °F 85% 30.31 in - Calm Calm - N/A   Unknown
9:52 PM 39.9 °F - 37.0 °F 89% 30.34 in - Calm Calm - N/A   Unknown
10:52 PM 37.9 °F 35.5 °F 35.1 °F 89% 30.32 in - NNW 3.5 mph - N/A   Unknown
11:52 PM 39.0 °F - 36.0 °F 89% 30.32 in - Calm Calm - N/A   Unknown